CW3303 Weather Reports


time (UTC)temp
C
wind
direction
speed
KPH
gust
KPH
rain 1hr
cm
rain 24hr
cm
rain mn
cm
humidity
%
barometer
mb
20260506091508 11 15 0.0 3.2 0.00 0.13 0.00 92 1018.9
20260506090012 11 319 1.6 4.8 0.00 0.13 0.00 93 1018.9
20260506084511 11 316 1.6 4.8 0.00 0.28 0.00 94 1019.0
20260506083004 11 317 0.0 4.8 0.00 0.28 0.00 93 1019.2
20260506081502 11 317 0.0 0.0 0.00 0.28 0.00 93 1019.3
20260506073109 11 337 3.2 6.4 0.00 0.33 0.00 92 1018.9
20260506071554 11 317 3.2 6.4 0.00 0.33 0.00 92 1018.7
20260506061548 13 163 0.0 0.0 0.00 0.48 0.33 88 1018.1
20260506044549 13 161 0.0 0.0 0.00 0.58 0.33 85 1017.5
20260506043041 13 161 0.0 0.0 0.00 0.58 0.33 86 1017.3
20260506041549 13 161 0.0 0.0 0.00 0.58 0.33 86 1017.2
20260506040040 13 161 0.0 0.0 0.00 0.58 0.33 87 1017.0
20260506034539 13 161 0.0 0.0 0.00 0.58 0.33 87 1016.8
20260506033035 13 161 0.0 0.0 0.00 0.58 0.33 87 1016.7
20260506031534 13 161 0.0 1.6 0.00 0.58 0.33 87 1016.4
20260506030033 13 161 0.0 3.2 0.00 0.58 0.33 86 1016.3
20260506024536 13 161 0.0 3.2 0.00 0.58 0.33 86 1016.3
20260506023031 13 161 1.6 4.8 0.00 0.58 0.33 85 1016.2
20260506021531 13 134 0.0 3.2 0.00 0.58 0.33 84 1016.1
20260506020030 13 122 0.0 0.0 0.00 0.58 0.33 84 1016.2
20260506014530 14 134 0.0 4.8 0.00 0.58 0.33 83 1016.2
20260506013032 14 121 0.0 6.4 0.00 0.58 0.33 83 1016.0
20260506011548 14 148 0.0 6.4 0.00 0.58 0.33 82 1016.1
20260506010029 14 130 1.6 6.4 0.00 0.58 0.33 83 1016.0
20260506004539 14 102 0.0 4.8 0.00 0.58 0.33 83 1016.0
20260506003030 14 55 0.0 0.0 0.00 0.58 0.33 82 1016.1
20260506001530 14 351 0.0 0.0 0.00 0.58 0.33 82 1015.8
20260506000026 14 351 0.0 0.0 0.00 0.58 0.33 83 1015.8
20260505234528 14 351 0.0 0.0 0.00 0.58 0.33 83 1015.7
20260505233031 13 351 0.0 0.0 0.00 0.58 0.33 83 1015.7
20260505231529 13 351 0.0 0.0 0.00 0.58 0.33 83 1015.7
20260505230024 13 273 0.0 1.6 0.00 0.58 0.33 84 1015.6
20260505224522 13 307 0.0 3.2 0.00 0.58 0.33 83 1015.6
20260505223021 13 316 0.0 4.8 0.00 0.58 0.33 83 1015.7
20260505221520 13 341 0.0 4.8 0.00 0.58 0.33 85 1015.9
20260505220041 13 311 0.0 4.8 0.00 0.58 0.33 84 1016.1
20260505214526 13 250 0.0 4.8 0.00 0.64 0.33 87 1016.1
20260505213021 13 256 1.6 6.4 0.00 0.64 0.33 87 1016.1
20260505211517 12 240 1.6 9.7 0.00 0.64 0.33 88 1016.2
20260505210017 12 221 4.8 11.3 0.00 0.64 0.33 87 1016.2
20260505204518 13 222 3.2 11.3 0.00 0.64 0.33 85 1016.1
20260505203013 13 257 3.2 8.0 0.00 0.64 0.33 84 1016.0
20260505201512 13 229 3.2 9.7 0.00 0.64 0.33 86 1015.8
20260505200010 13 238 4.8 11.3 0.00 0.64 0.33 85 1016.1
20260505194517 13 257 1.6 6.4 0.00 0.64 0.33 85 1016.1
20260505193005 12 249 3.2 11.3 0.00 0.64 0.33 87 1016.2
20260505191505 12 256 1.6 9.7 0.00 0.64 0.33 87 1016.0
20260505190002 12 218 1.6 8.0 0.00 0.64 0.33 87 1016.1
20260505184600 12 232 1.6 6.4 0.00 0.64 0.33 88 1016.1
20260505183059 12 335 0.0 4.8 0.00 0.64 0.33 89 1016.0
20260505181555 11 270 1.6 6.4 0.00 0.64 0.33 90 1015.7
20260505180053 11 249 3.2 9.7 0.00 0.64 0.33 91 1015.7
20260505174551 11 226 0.0 6.4 0.00 0.64 0.33 91 1015.7
20260505173047 11 228 3.2 4.8 0.00 0.64 0.33 92 1015.5
20260505171644 11 305 1.6 6.4 0.00 0.64 0.33 92 1015.5
20260505170039 10 266 1.6 6.4 0.00 0.64 0.33 92 1015.5
20260505164553 10 240 1.6 8.0 0.00 0.66 0.33 94 1015.3
20260505163037 10 295 1.6 8.0 0.00 0.66 0.33 94 1015.4
20260505161547 10 311 1.6 4.8 0.00 0.66 0.33 95 1015.3
20260505153030 9 197 0.0 6.4 0.00 0.66 0.33 96 1015.3
20260505151529 9 261 1.6 6.4 0.00 0.66 0.33 96 1015.2
20260505124534 9 84 0.0 0.0 0.03 0.66 0.33 95 1014.3
20260505123021 9 22 0.0 0.0 0.03 0.66 0.33 95 1014.3
20260505121521 9 3 0.0 0.0 0.03 0.66 0.33 94 1014.3
20260505120023 9 3 0.0 0.0 0.03 0.66 0.33 95 1014.3
20260505114519 9 3 0.0 0.0 0.00 0.64 0.30 95 1014.1
20260505113018 9 3 0.0 0.0 0.03 0.64 0.30 95 1014.4
20260505111517 9 3 0.0 0.0 0.03 0.64 0.30 95 1014.5
20260505101512 9 356 0.0 0.0 0.08 0.61 0.28 95 1014.5
20260505100011 9 356 0.0 0.0 0.08 0.61 0.28 95 1014.7
20260505094512 9 356 0.0 0.0 0.10 0.58 0.25 95 1014.8
20260505093009 9 356 0.0 0.0 0.13 0.56 0.23 94 1014.8